User: anonymous   Login
Location: Santa Barbara
(34.4500°N, 119.7700°W)
Time: 00:31:19
(UTC-07:00)
Language:

Cosmos 1626 Rocket - Orbit

View from above orbital plane
View from above orbital plane
View from above satellite
View from above satellite

Ground track
Ground track

The orbit data is extracted from the following two-line orbital elements,

1 15495U 85009B   17230.82605639 +.00000062 +00000-0 +44774-5 0  9997
2 15495 082.5256 128.8106 0021471 121.2028 239.1296 14.83775413738161
Epoch (UTC): 18 August 2017 19:49:31
Eccentricity: 0.0021471
inclination: 82.5256°
perigee height: 602 km
apogee height: 632 km
right ascension of ascending node: 128.8106°
argument of perigee: 121.2028°
revolutions per day: 14.83775413
mean anomaly at epoch: 239.1296°
orbit number at epoch: 73816

The dashed part of the orbit path shows where the satellite is in the earth's shadow,  

DLR